{"data":{"norad_id":57234,"intl_designator":"2023-094S","name":"STARLINK-6368","alt_names":[],"object_type":"PAYLOAD","status":"ACTIVE","operator":null,"country":"US","launch_date":"2023-07-07","launch_site_code":"AFWTR","launch_vehicle":null,"mission":null,"orbit_class":"UNKNOWN","rcs_meters":null,"size_class":null,"mass_kg":null,"dimensions":null,"purposes":["comms"],"wikipedia_slug":null,"has_3d_model":false,"image_url":null,"decayed_at":null,"tle_current":{"epoch":"2026-05-24T23:01:08.203008Z","epoch_age_seconds":82588,"freshness":"FRESH","line1":"1 57234U 23094S   26144.95912272 -.00000330  00000+0 -24787-5 0  9993","line2":"2 57234  43.0027 319.6607 0001444 252.3264 107.7430 15.27575044158789","mean_motion":15.27575044,"eccentricity":0.0001444,"inclination_deg":43.0027,"raan_deg":319.6607,"arg_perigee_deg":252.3264,"mean_anomaly_deg":107.743,"bstar":-2.4787e-6,"rev_number":15878,"period_min":94.267054548713,"perigee_km":482.07317871151,"apogee_km":484.05469354186,"semimajor_km":6861.2009361267,"source":"CELESTRAK","updated_at":"2026-05-25T13:38:18.255074Z"}}}